PLEIADES 1B

Last updated on Sun Apr 05 2026 00:02:32 GMT+0000 (Coordinated Universal Time)

1 39019U 12068A 26094.26426103 .00000719 00000+0 16461-3 0 9991 2 39019 98.1980 170.3238 0001305 79.3313 280.8033 14.58550874710074
UTC large
Height (km)
Speed (km/s)
/
Latitude / Longitude
Inclination (degrees)
Orbital Period (minutes)
Azimuth
Elevation
Range (km)
Doppler Factor

Next 0 passes for location: London (51.5072 / 0.1276)

Sorry there are no passes over London.